TimeEST,TemperatureF,Dew PointF,Humidity,Sea Level PressureIn,VisibilityMPH,Wind Direction,Wind SpeedMPH,Gust SpeedMPH,PrecipitationIn,Events,Conditions,WindDirDegrees,DateUTC
12:25 AM,57.2,55.4,94,30.30,6.0,Calm,Calm,-,N/A,,Scattered Clouds,0,2012-12-04 05:25:00
12:56 AM,55.9,54.0,93,30.30,5.0,Calm,Calm,-,N/A,,Mostly Cloudy,0,2012-12-04 05:56:00
1:13 AM,55.4,53.6,94,30.29,2.5,WSW,4.6,-,N/A,,Scattered Clouds,250,2012-12-04 06:13:00
1:18 AM,55.4,53.6,94,30.29,1.5,Calm,Calm,-,N/A,,Scattered Clouds,0,2012-12-04 06:18:00
1:27 AM,57.2,55.4,94,30.29,2.0,Calm,Calm,-,N/A,,Mostly Cloudy,0,2012-12-04 06:27:00
1:36 AM,57.2,55.4,94,30.29,1.5,Calm,Calm,-,N/A,,Mostly Cloudy,0,2012-12-04 06:36:00
1:43 AM,57.2,55.4,94,30.29,2.5,Calm,Calm,-,N/A,,Overcast,0,2012-12-04 06:43:00
1:56 AM,55.9,55.0,97,30.29,6.0,Calm,Calm,-,N/A,,Overcast,0,2012-12-04 06:56:00
2:56 AM,55.9,54.0,93,30.29,7.0,Calm,Calm,-,N/A,,Mostly Cloudy,0,2012-12-04 07:56:00
3:01 AM,55.4,53.6,94,30.29,1.5,Calm,Calm,-,N/A,,Mostly Cloudy,0,2012-12-04 08:01:00
3:04 AM,55.4,55.4,100,30.29,0.8,Calm,Calm,-,N/A,,Mostly Cloudy,0,2012-12-04 08:04:00
3:12 AM,55.4,55.4,100,30.28,1.5,Calm,Calm,-,N/A,,Overcast,0,2012-12-04 08:12:00
3:14 AM,55.4,55.4,100,30.28,3.0,Calm,Calm,-,N/A,,Overcast,0,2012-12-04 08:14:00
3:56 AM,55.0,53.1,93,30.28,9.0,Calm,Calm,-,0.01,,Mostly Cloudy,0,2012-12-04 08:56:00
4:56 AM,55.0,53.1,93,30.29,10.0,Calm,Calm,-,N/A,,Overcast,0,2012-12-04 09:56:00
5:56 AM,57.0,54.0,89,30.30,10.0,Calm,Calm,-,N/A,,Overcast,0,2012-12-04 10:56:00
6:56 AM,57.9,55.0,90,30.31,10.0,Calm,Calm,-,N/A,,Mostly Cloudy,0,2012-12-04 11:56:00
7:56 AM,57.9,55.9,93,30.33,8.0,Calm,Calm,-,N/A,,Overcast,0,2012-12-04 12:56:00
8:56 AM,61.0,57.9,90,30.35,10.0,Calm,Calm,-,N/A,,Mostly Cloudy,0,2012-12-04 13:56:00
9:56 AM,64.9,59.0,81,30.36,10.0,Calm,Calm,-,N/A,,Mostly Cloudy,0,2012-12-04 14:56:00
10:56 AM,68.0,59.0,73,30.36,10.0,Calm,Calm,-,N/A,,Mostly Cloudy,0,2012-12-04 15:56:00
11:56 AM,68.0,60.1,76,30.33,10.0,Calm,Calm,-,N/A,,Mostly Cloudy,0,2012-12-04 16:56:00
12:56 PM,71.1,60.1,68,30.30,10.0,ESE,4.6,-,N/A,,Mostly Cloudy,120,2012-12-04 17:56:00
1:56 PM,73.0,59.0,61,30.28,10.0,South,3.5,-,N/A,,Mostly Cloudy,180,2012-12-04 18:56:00
2:56 PM,71.1,57.9,63,30.27,10.0,SSE,6.9,-,N/A,,Mostly Cloudy,160,2012-12-04 19:56:00
3:56 PM,71.1,57.9,63,30.26,10.0,SSW,4.6,-,N/A,,Overcast,200,2012-12-04 20:56:00
4:56 PM,68.0,59.0,73,30.26,10.0,Calm,Calm,-,N/A,,Mostly Cloudy,0,2012-12-04 21:56:00
5:56 PM,63.0,55.9,78,30.26,10.0,Calm,Calm,-,N/A,,Clear,0,2012-12-04 22:56:00
6:56 PM,62.1,57.0,84,30.26,10.0,Calm,Calm,-,N/A,,Clear,0,2012-12-04 23:56:00
7:56 PM,60.1,55.9,86,30.27,10.0,Calm,Calm,-,N/A,,Clear,0,2012-12-05 00:56:00
8:56 PM,57.0,55.0,93,30.27,10.0,Calm,Calm,-,N/A,,Clear,0,2012-12-05 01:56:00
9:56 PM,57.0,55.0,93,30.26,10.0,Calm,Calm,-,N/A,,Clear,0,2012-12-05 02:56:00
10:56 PM,54.0,53.1,97,30.27,10.0,Calm,Calm,-,N/A,,Clear,0,2012-12-05 03:56:00
11:26 PM,53.6,51.8,94,30.26,1.8,Calm,Calm,-,N/A,,Clear,0,2012-12-05 04:26:00
11:32 PM,51.8,50.0,94,30.26,3.0,Calm,Calm,-,N/A,,Clear,0,2012-12-05 04:32:00
11:47 PM,53.6,51.8,94,30.25,1.8,Calm,Calm,-,N/A,,Clear,0,2012-12-05 04:47:00
11:56 PM,53.1,51.1,93,30.26,3.0,Calm,Calm,-,N/A,,Clear,0,2012-12-05 04:56:00